Location: Taipo
(41.0000°S, 175.9500°E)
Time: 02:21:53
(UTC+00:00)

USA 238 - Pass Details

Date: 18 April 2024
Orbit: 912 x 1299 km, 63.4° (Epoch: 29 April)

Event Time Altitude Azimuth Distance (km) Brightness Sun altitude
Exits shadow 16:53:02 38° 292° (WNW) 1,834 4.4 -22.8°
Maximum altitude 16:56:06 59° 231° (SW) 1,399 4.0 -22.2°
Drops below altitude 10° 17:03:27 10° 151° (SSE) 3,071 6.5 -20.8°
Sets 17:06:08 0° 147° (SSE) 3,980 7.2 -20.3°
